Regional Weather Roundup
Issued by NWS

Home | Current Version | Previous Version | Text Only | Print | Product List | Glossary Off
Versions: 1 2 3 4 5 6 7 8 9 10 11 12 13 14 15 16 17 18 19 20 21 22 23 24 25 26 27 28 29 30 31 32 33 34 35 36 37 38 39 40 41 42 43 44 45 46 47 48 49 50

000
ASUS45 KBOU 140407
RWRCO

WEATHER ROUNDUP FOR COLORADO
NATIONAL WEATHER SERVICE DENVER/BOULDER CO
900 PM MST SAT FEB 13 2016

NOTE: "FAIR" INDICATES FEW OR NO CLOUDS BELOW 12000 FEET WITH NO
SIGNIFICANT WEATHER AND/OR OBSTRUCTIONS TO VISIBILITY.

COZ001>005-013-030-031-140500-
...NORTHWEST COLORADO...

CITY           SKY/WX    TMP DP  RH WIND       PRES   REMARKS
CRAIG          FAIR      11   8  88 W6        30.24R WCI   1
HAYDEN         FAIR      23  14  68 SW5       30.22R WCI  17
MEEKER         FAIR      24  17  74 VRB3      30.22R
MOUNT WERNER   NOT AVBL
STEAMBOAT SPGS FAIR      29  17  62 CALM      30.22R
WALDEN         FAIR      28  14  54 W8        30.17R WCI  20
$$

COZ006>008-011-140500-
...WEST CENTRAL VALLEYS...

CITY           SKY/WX    TMP DP  RH WIND       PRES   REMARKS
GRAND JUNCTION FAIR      31  27  85 NE7       30.21R WCI  24
MONTROSE       FAIR      35  29  78 NE6       30.24R WCI  30
EAGLE          CLEAR     34  23  64 E9        30.22R WCI  26
RIFLE          FAIR      31  23  72 E5        30.22R WCI  26
DELTA          FAIR      37  32  81 CALM      30.23R
NUCLA          FAIR      37  28  70 E6        30.26R
$$

COZ017>023-064>068-140500-
...SOUTHWEST COLORADO...

CITY           SKY/WX    TMP DP  RH WIND       PRES   REMARKS
DURANGO        FAIR      37  21  52 CALM      30.18S
CORTEZ         FAIR      38  27  64 NE9       30.21S
PAGOSA SPRINGS MOCLDY    35  21  55 CALM      30.22R
TELLURIDE      NOT AVBL
WOLF CREEK PAS MOCLDY    28  10  47 SW9       30.36S WCI  20
$$

COZ009-010-012-014-032>034-037-058>063-140500-
...CENTRAL COLORADO...

CITY           SKY/WX    TMP DP  RH WIND       PRES   REMARKS
ASPEN          FAIR      30  18  60 S6        30.22R WCI  24
BUENA VISTA    FAIR      39  11  32 W15G22    30.15S
COPPER MTN     FAIR      27   5  39 W9G25     30.26R WCI  17
BERTHOUD PASS  FAIR      18   9  68 NW22G33   30.25R WCI   0
COTTONWOOD PAS FAIR      37   1  22 W25G37    30.18F
GUNNISON       FAIR      10   1  67 CALM      30.29R
KREMMLING      FAIR      30  12  47 W3G9      30.20R
LEADVILLE      FAIR      28   8  43 NE6       30.22R WCI  22
MONARCH PASS   FAIR      25   5  42 MISG      30.38R
SALIDA         NOT AVBL
SUNLIGHT       FAIR      28  16  59 CALM      30.29F
WILKERSON PASS FAIR      28   3  34 NW15G28   30.21R WCI  17
$$

COZ069>075-140500-
...SAN LUIS VALLEY/SANGRE DE CRISTO MOUNTAINS...

CITY           SKY/WX    TMP DP  RH WIND       PRES   REMARKS
ALAMOSA        FAIR      32  22  66 SW9       30.17R WCI  24
LA VETA PASS   FAIR      36   3  25 S12G18    30.20F
SAGUACHE       FAIR      34  14  44 E3        30.19R
$$

COZ035-036-038>040-140500-
...NORTHERN COLORADO FRONT RANGE...

CITY           SKY/WX    TMP DP  RH WIND       PRES   REMARKS
DENVER INTL AP FAIR      50  16  25 NW16      29.99R
DMNS CITY PARK   N/A     55   5  13 N15       29.97R
AURORA         PTCLDY    44  15  31 N9        29.99R
FRONT RANGE AP MOCLDY    37  23  56 N12G17    30.00R
ERIE MUNI ARPT FAIR      53  15  22 NW15G28   29.97R
BOULDER MUN AP FAIR      54  16  22 W37G52    29.93R
CENTENNIAL     FAIR      50   8  18 VRB3      29.99R
BROOMFIELD     NOT AVBL
FORT COLLINS   FAIR      50  18  27 NW30G39   30.00R
LONGMONT       FAIR      54  15  21 NW15G31   29.99R
$$

COZ041-046-047-076>085-087-088-140500-
...PIKES PEAK/PALMER DIVIDE AND SOUTHERN FOOTHILLS...

CITY           SKY/WX    TMP DP  RH WIND       PRES   REMARKS
COLO. SPRINGS  MOCLDY    53   7  15 NW28G44   29.98S
A. F. ACADEMY  FAIR      47  11  22 NE17G32   30.00S
SCHRIEVER AFB  FAIR      45  14  28 N9        30.02R
ELLICOTT       FAIR     N/A N/A N/A NW9       30.00R
FALCON         FAIR      43  12  28 NW10      30.02S
FORT CARSON    FAIR      48  13  24 NW8       29.96R
LIMON          FAIR      31  26  82 N5        29.99R WCI  26
MONUMENT HILL  FAIR      36  18  48 NW13      30.05R
TRINIDAD       FAIR      48   8  19 NW12      30.01S
$$

COZ042>045-048>051-090-091-140500-
...NORTHEAST COLORADO...

CITY           SKY/WX    TMP DP  RH WIND       PRES   REMARKS
GREELEY ARPT   FAIR      43  25  49 N21       30.00R
AKRON          FAIR      37  31  78 N32G43    30.02R
BURLINGTON     FAIR      34  29  82 SW14      29.96R WCI  25
WRAY           FAIR      31  31 100 NW3       29.97R
STERLING       FAIR      37  32  81 N21G31    30.02R
HOLYOKE        FAIR      41  34  75 N24G31    30.01R
FORT MORGAN    FAIR      39  29  66 N28G40    30.04R
$$

COZ086-089-092>099-140500-
...SOUTHEAST COLORADO...

CITY           SKY/WX    TMP DP  RH WIND       PRES   REMARKS
PUEBLO         FAIR      44  30  57 NE6       29.97R
LA JUNTA       FAIR      37  28  70 S6        29.95F
LAMAR          FAIR      26  24  92 S3        29.94F
SPRINGFIELD      N/A     36  30  79 NW10      29.95R
$$



USA.gov is the U.S. government's official web portal to all federal, state and local government web resources and services.